Location: Diebersbach
(48.5163°N, 8.0558°E)
Time: 23:08:06
(UTC+00:00)

FENGYUN 1C DEB - Pass Details

Date: 03 February 2022
Orbit: 690 x 984 km, 98.6° (Epoch: 20 May)

Event Time Altitude Azimuth Distance (km) Brightness Sun altitude
Rises 17:44:52 0° 173° (S) 3,658 ? -12.7°
Reaches altitude 10° 17:47:21 10° 176° (S) 2,727 ? -13.1°
Maximum altitude 17:53:30 66° 258° (WSW) 1,067 ? -14.1°
Drops below altitude 10° 17:59:38 10° 341° (NNW) 2,715 ? -15.1°
Sets 18:02:06 0° 344° (NNW) 3,641 ? -15.5°
